Afton Municipal Airport, WY

1:01 PM MDT on October 14, 2019 (GMT -0600)
Afton Municipal

Weather History for KAFO - August, 2019

Change the Weather History Date:

Wednesday, August 28, 2019

  Actual Average Record
Temperature  
Mean Temperature 58 °F -  
Max Temperature 84 °F 78 °F 87 °F (2017)
Min Temperature 32 °F 39 °F 32 °F (2016)
Degree Days  
Heating Degree Days 7    
Growing Degree Days 8 (Base 50)    
Moisture  
Dew Point 32 °F    
Average Humidity 46    
Maximum Humidity 93    
Minimum Humidity 14    
Precipitation  
Precipitation 0.00 in - - ()
Sea Level Pressure  
Sea Level Pressure 30.23 in    
Wind  
Wind Speed 3 mph ()    
Max Wind Speed 12 mph    
Max Gust Speed 24 mph    
Visibility 10.0 miles    
Events      
Averages and records for this station are not official NWS values.
T = Trace of Precipitation, MM = Missing Value Source: Averaged Metar Reports

Daily Weather History Graph

Daily Weather History Graph

Search for Another Location

Airport or City:

Astronomy

Aug. 28, 2019 Rise Set
Actual Time 6:44 AM MDT 8:05 PM MDT
Civil Twilight 6:14 AM MDT 8:34 PM MDT
Nautical Twilight 5:39 AM MDT 9:09 PM MDT
Astronomical Twilight 5:01 AM MDT 9:46 PM MDT
Moon 4:16 AM MDT (8/28) 7:23 PM MDT (8/28)
Length of Visible Light 14h 19m
Length of Day
13h 21m
Waning Crescent, 4% of the Moon is Illuminated
Aug 28
Waning Crescent
Aug 30
New
Sep 5
First Quarter
Sep 13
Full
Sep 21
Last Quarter

Hourly Weather History & Observations

Time (MDT) Temp. Windchill Dew Point Humidity Pressure Visibility Wind Dir Wind Speed Gust Speed Precip Events Conditions
12:15 AM 46.4 °F 44.3 °F 32.0 °F 57% 30.26 in 10.0 mi SSE 4.6 mph - N/A   Clear
12:35 AM 44.6 °F 41.4 °F 32.0 °F 61% 30.26 in 10.0 mi SSW 5.8 mph - N/A   Clear
12:55 AM 42.8 °F 41.1 °F 33.8 °F 70% 30.26 in 10.0 mi South 3.5 mph - N/A   Clear
1:15 AM 42.8 °F 40.1 °F 32.0 °F 66% 30.27 in 10.0 mi South 4.6 mph - N/A   Clear
1:35 AM 42.8 °F 39.3 °F 32.0 °F 66% 30.27 in 10.0 mi SSE 5.8 mph - N/A   Clear
1:55 AM 44.6 °F 41.4 °F 32.0 °F 61% 30.27 in 10.0 mi South 5.8 mph - N/A   Clear
2:15 AM 41.0 °F 38.0 °F 32.0 °F 70% 30.27 in 10.0 mi South 4.6 mph - N/A   Clear
2:35 AM 39.2 °F 35.9 °F 32.0 °F 75% 30.27 in 10.0 mi South 4.6 mph - N/A   Clear
2:55 AM 39.2 °F 37.0 °F 32.0 °F 75% 30.27 in 10.0 mi SE 3.5 mph - N/A   Clear
3:15 AM 39.2 °F 37.0 °F 32.0 °F 75% 30.27 in 10.0 mi SSE 3.5 mph - N/A   Clear
3:35 AM 41.0 °F - 32.0 °F 70% 30.27 in 10.0 mi Calm Calm - N/A   Clear
3:55 AM 41.0 °F - 32.0 °F 70% 30.27 in 10.0 mi Calm Calm - N/A   Clear
4:15 AM 35.6 °F - 32.0 °F 87% 30.27 in 10.0 mi Calm Calm - N/A   Clear
4:35 AM 37.4 °F - 32.0 °F 81% 30.27 in 10.0 mi Calm Calm - N/A   Clear
4:55 AM 37.4 °F - 32.0 °F 81% 30.26 in 10.0 mi Calm Calm - N/A   Clear
5:15 AM 39.2 °F - 32.0 °F 75% 30.26 in 10.0 mi Calm Calm - N/A   Clear
5:35 AM 33.8 °F - 30.2 °F 87% 30.27 in 10.0 mi Calm Calm - N/A   Clear
5:55 AM 35.6 °F - 30.2 °F 81% 30.27 in 10.0 mi Calm Calm - N/A   Clear
6:15 AM 37.4 °F - 30.2 °F 75% 30.27 in 10.0 mi Calm Calm - N/A   Clear
6:35 AM 32.0 °F - 30.2 °F 93% 30.27 in 10.0 mi Calm Calm - N/A   Clear
6:55 AM 35.6 °F - 30.2 °F 81% 30.28 in 10.0 mi Calm Calm - N/A   Clear
7:15 AM 37.4 °F - 30.2 °F 75% 30.27 in 10.0 mi Calm Calm - N/A   Clear
7:35 AM 35.6 °F - 30.2 °F 81% 30.28 in 10.0 mi Calm Calm - N/A   Clear
7:55 AM 37.4 °F - 32.0 °F 81% 30.29 in 10.0 mi Calm Calm - N/A   Clear
8:15 AM 44.6 °F - 32.0 °F 61% 30.28 in 10.0 mi Calm Calm - N/A   Clear
8:35 AM 46.4 °F - 33.8 °F 62% 30.28 in 10.0 mi Calm Calm - N/A   Clear
8:55 AM 46.4 °F - 33.8 °F 62% 30.28 in 10.0 mi Calm Calm - N/A   Clear
9:15 AM 50.0 °F - 33.8 °F 54% 30.28 in 10.0 mi Calm Calm - N/A   Clear
9:35 AM 53.6 °F - 33.8 °F 47% 30.28 in 10.0 mi Calm Calm - N/A   Clear
9:55 AM 55.4 °F - 35.6 °F 47% 30.28 in 10.0 mi Calm Calm - N/A   Clear
10:15 AM 59.0 °F - 33.8 °F 39% 30.27 in 10.0 mi Calm Calm - N/A   Clear
10:35 AM 60.8 °F - 33.8 °F 36% 30.27 in 10.0 mi Calm Calm - N/A   Clear
10:55 AM 64.4 °F - 35.6 °F 34% 30.27 in 10.0 mi NNW 3.5 mph - N/A   Clear
11:15 AM 68.0 °F - 35.6 °F 30% 30.25 in 10.0 mi NNW 3.5 mph - N/A   Clear
11:35 AM 68.0 °F - 35.6 °F 30% 30.25 in 10.0 mi Calm Calm - N/A   Clear
11:55 AM 71.6 °F - 35.6 °F 27% 30.24 in 10.0 mi NNW 4.6 mph - N/A   Clear
12:15 PM 73.4 °F - 37.4 °F 27% 30.24 in 10.0 mi NNW 3.5 mph - N/A   Clear
12:35 PM 77.0 °F - 35.6 °F 22% 30.23 in 10.0 mi North 3.5 mph - N/A   Clear
12:55 PM 80.6 °F - 30.2 °F 16% 30.22 in 10.0 mi Calm Calm - N/A   Clear
1:15 PM 80.6 °F - 30.2 °F 16% 30.22 in 10.0 mi Calm Calm - N/A   Clear
1:35 PM 80.6 °F - 28.4 °F 15% 30.21 in 10.0 mi ESE 4.6 mph - N/A   Clear
1:55 PM 80.6 °F - 28.4 °F 15% 30.21 in 10.0 mi Calm Calm - N/A   Clear
2:15 PM 82.4 °F - 32.0 °F 16% 30.21 in 10.0 mi WSW 5.8 mph - N/A   Clear
2:35 PM 82.4 °F - 30.2 °F 15% 30.20 in 10.0 mi Calm Calm - N/A   Clear
2:55 PM 82.4 °F - 30.2 °F 15% 30.19 in 10.0 mi NW 9.2 mph - N/A   Clear
3:15 PM 82.4 °F - 28.4 °F 14% 30.19 in 10.0 mi WNW 11.5 mph 24.2 mph N/A   Clear
3:35 PM 82.4 °F - 32.0 °F 16% 30.18 in 10.0 mi SW 9.2 mph - N/A   Clear
3:55 PM 84.2 °F - 30.2 °F 14% 30.17 in 10.0 mi West 8.1 mph - N/A   Clear
4:15 PM 82.4 °F - 30.2 °F 15% 30.16 in 10.0 mi WNW 8.1 mph 19.6 mph N/A   Clear
4:35 PM 82.4 °F - 30.2 °F 15% 30.16 in 10.0 mi West 11.5 mph 20.7 mph N/A   Clear
4:55 PM 80.6 °F - 32.0 °F 17% 30.15 in 10.0 mi WNW 6.9 mph 10.4 mph N/A   Clear
5:15 PM 80.6 °F - 32.0 °F 17% 30.15 in 10.0 mi WNW 11.5 mph 19.6 mph N/A   Clear
5:35 PM 80.6 °F - 30.2 °F 16% 30.15 in 10.0 mi NW 9.2 mph - N/A   Clear
5:55 PM 80.6 °F - 32.0 °F 17% 30.15 in 10.0 mi WNW 10.4 mph - N/A   Clear
6:15 PM 78.8 °F - 32.0 °F 18% 30.14 in 10.0 mi WNW 8.1 mph - N/A   Clear
6:35 PM 78.8 °F - 35.6 °F 21% 30.14 in 10.0 mi WNW 9.2 mph - N/A   Clear
6:55 PM 75.2 °F - 33.8 °F 22% 30.14 in 10.0 mi WNW 6.9 mph - N/A   Clear
7:15 PM 71.6 °F - 35.6 °F 27% 30.14 in 10.0 mi WNW 4.6 mph - N/A   Clear
7:35 PM 71.6 °F - 33.8 °F 25% 30.14 in 10.0 mi Calm Calm - N/A   Clear
7:55 PM 71.6 °F - 32.0 °F 23% 30.14 in 10.0 mi Calm Calm - N/A   Clear
8:15 PM 60.8 °F - 33.8 °F 36% 30.15 in 10.0 mi Calm Calm - N/A   Clear
8:35 PM 64.4 °F - 32.0 °F 30% 30.16 in 10.0 mi Calm Calm - N/A   Clear
8:55 PM 57.2 °F - 33.8 °F 41% 30.17 in 10.0 mi Calm Calm - N/A   Clear
9:15 PM 59.0 °F - 32.0 °F 36% 30.18 in 10.0 mi Calm Calm - N/A   Clear
9:35 PM 51.8 °F - 33.8 °F 50% 30.19 in 10.0 mi SSE 5.8 mph - N/A   Clear
9:55 PM 51.8 °F - 33.8 °F 50% 30.19 in 10.0 mi South 4.6 mph - N/A   Clear
10:15 PM 51.8 °F - 33.8 °F 50% 30.20 in 10.0 mi South 6.9 mph - N/A   Clear
10:35 PM 50.0 °F - 33.8 °F 54% 30.20 in 10.0 mi South 5.8 mph - N/A   Clear
10:55 PM 50.0 °F - 32.0 °F 50% 30.20 in 10.0 mi Calm Calm - N/A   Clear
11:15 PM 50.0 °F - 32.0 °F 50% 30.20 in 10.0 mi South 3.5 mph - N/A   Clear